Weather History for Phuket, Thailand

Change the Weather History Date:

Sunday, November 20, 2011

  Actual Average Record
Temperature  
Mean Temperature 82 °F -  
Max Temperature 90 °F 88 °F 93 °F (1997)
Min Temperature 74 °F 74 °F 71 °F (1999)
Cooling Degree Days 17    
Growing Degree Days 32 (Base 50)    
Moisture  
Dew Point 74 °F    
Average Humidity 76    
Maximum Humidity 94    
Minimum Humidity 51    
Precipitation  
Precipitation 0.00 in 0.14 in - ()
Sea Level Pressure  
Sea Level Pressure 29.82 in    
Wind  
Wind Speed 6 mph ()    
Max Wind Speed 13 mph    
Max Gust Speed -    
Visibility 5.4 miles    
Events Rain    
Averages and records for this station are not official NWS values.
T = Trace of Precipitation, MM = Missing Value Source: Averaged Metar Reports

Daily Weather History Graph

Daily Weather History Graph

Search for Another Location

Airport:

Trip Planner

Search our weather history database for the weather conditions in past years. The results will help you decide how hot, cold, wet, or windy it might be!

Date:

Astronomy

Nov. 20, 2011 Rise Set
Actual Time 6:20 AM ICT 6:04 PM ICT
Civil Twilight 5:58 AM ICT 6:26 PM ICT
Nautical Twilight 5:32 AM ICT 6:51 PM ICT
Astronomical Twilight 5:06 AM ICT 7:17 PM ICT
Moon 1:16 AM ICT (11/20) 1:41 PM ICT (11/20)
Length of Visible Light 12h 28m
Length of Day
11h 43m
Waning Crescent, 33% of the Moon is Illuminated
Nov 20
Waning Crescent
Nov 25
New
Dec 2
First Quarter
Dec 10
Full
Dec 18
Last Quarter

Hourly Weather History & Observations

Time (ICT) Temp. Heat Index Dew Point Humidity Pressure Visibility Wind Dir Wind Speed Gust Speed Precip Events Conditions
12:30 AM 80.6 °F 85.4 °F 73.4 °F 79% 29.83 in 6.2 mi ENE 8.1 mph - N/A   Scattered Clouds
1:00 AM 81 °F - 77 °F 83% 29.81 in 6 mi ENE 5.8 mph - -   Scattered Clouds
1:00 AM 80.6 °F 85.4 °F 73.4 °F 79% 29.83 in 6.2 mi ENE 5.8 mph - N/A   Scattered Clouds
1:30 AM 80.6 °F 85.4 °F 73.4 °F 79% 29.83 in 6.2 mi East 5.8 mph - N/A   Scattered Clouds
2:00 AM 80.6 °F 85.4 °F 73.4 °F 79% 29.80 in 6.2 mi East 8.1 mph - N/A   Scattered Clouds
2:30 AM 80.6 °F 85.4 °F 73.4 °F 79% 29.80 in 6.2 mi ENE 5.8 mph - N/A   Scattered Clouds
3:30 AM 78.8 °F - 73.4 °F 83% 29.80 in 6.2 mi ENE 5.8 mph - N/A   Scattered Clouds
4:00 AM 78.8 °F - 73.4 °F 83% 29.80 in 6.2 mi ENE 3.5 mph - N/A   Partly Cloudy
4:30 AM 77.0 °F - 73.4 °F 89% 29.80 in 6.2 mi East 5.8 mph - N/A   Partly Cloudy
5:00 AM 78.8 °F - 73.4 °F 83% 29.80 in 6.2 mi ENE 5.8 mph - N/A   Partly Cloudy
5:30 AM 77.0 °F - 75.2 °F 94% 29.80 in 6.2 mi Calm Calm - N/A   Partly Cloudy
6:00 AM 78.8 °F - 73.4 °F 83% 29.80 in 6.2 mi Calm Calm - N/A   Scattered Clouds
6:30 AM 78.8 °F - 73.4 °F 83% 29.83 in 6.2 mi Calm Calm - N/A   Scattered Clouds
7:00 AM 78 °F - 75 °F 88% 29.79 in 6 mi Calm Calm - -   Scattered Clouds
7:00 AM 80.6 °F 85.4 °F 73.4 °F 79% 29.83 in 6.2 mi NE 5.8 mph - N/A   Mostly Cloudy
7:30 AM 80.6 °F 85.4 °F 73.4 °F 79% 29.83 in 6.2 mi ENE 5.8 mph - N/A   Mostly Cloudy
8:00 AM 82.4 °F 89.5 °F 75.2 °F 79% 29.83 in 6.2 mi ENE 8.1 mph - N/A   Mostly Cloudy
8:30 AM 84.2 °F 92.3 °F 75.2 °F 74% 29.86 in 5.6 mi Variable 4.6 mph - N/A   Mostly Cloudy
9:00 AM 84.2 °F 92.3 °F 75.2 °F 74% 29.86 in 5.0 mi ENE 8.1 mph - N/A   Mostly Cloudy
9:30 AM 86.0 °F 93.4 °F 73.4 °F 66% 29.86 in 5.0 mi East 12.7 mph - N/A   Mostly Cloudy
10:00 AM 86.0 °F 95.1 °F 75.2 °F 70% 29.86 in 5.6 mi ENE 10.4 mph - N/A   Mostly Cloudy
10:30 AM 87.8 °F 97.6 °F 75.2 °F 66% 29.86 in 5.6 mi East 10.4 mph - N/A   Mostly Cloudy
11:00 AM 87.8 °F 95.6 °F 73.4 °F 62% 29.86 in 5.6 mi East 10.4 mph - N/A   Mostly Cloudy
11:30 AM 87.8 °F 95.6 °F 73.4 °F 62% 29.86 in 5.6 mi East 11.5 mph - N/A   Mostly Cloudy
12:00 PM 87.8 °F 93.8 °F 71.6 °F 58% 29.86 in 5.6 mi ESE 11.5 mph - N/A   Mostly Cloudy
12:30 PM 89.6 °F 96.2 °F 71.6 °F 55% 29.83 in 5.6 mi East 9.2 mph - N/A   Mostly Cloudy
1:00 PM 90 °F - 74 °F 51% 29.80 in 5 mi East 8.1 mph - -   Haze
1:00 PM 89.6 °F 96.2 °F 71.6 °F 55% 29.80 in 5.0 mi East 10.4 mph - N/A   Mostly Cloudy
1:30 PM 89.6 °F 98.2 °F 73.4 °F 59% 29.80 in 5.6 mi East 11.5 mph - N/A   Mostly Cloudy
2:00 PM 87.8 °F 95.6 °F 73.4 °F 62% 29.77 in 5.0 mi East 10.4 mph - N/A   Mostly Cloudy
2:30 PM 86.0 °F 93.4 °F 73.4 °F 66% 29.77 in 5.0 mi East 8.1 mph - N/A   Mostly Cloudy
3:00 PM 86.0 °F 95.1 °F 75.2 °F 70% 29.77 in 5.0 mi Variable 6.9 mph - N/A   Mostly Cloudy
3:30 PM 80.6 °F 86.2 °F 75.2 °F 84% 29.77 in 4.3 mi East 9.2 mph - N/A Rain Light Rain
4:00 PM 82.4 °F 89.5 °F 75.2 °F 79% 29.77 in 4.3 mi East 5.8 mph - N/A   Mostly Cloudy
4:30 PM 82.4 °F 88.2 °F 73.4 °F 74% 29.77 in 4.3 mi East 8.1 mph - N/A   Mostly Cloudy
5:00 PM 78.8 °F - 73.4 °F 83% 29.80 in 4.3 mi Variable 4.6 mph - N/A   Mostly Cloudy
5:30 PM 78.8 °F - 73.4 °F 83% 29.80 in 4.3 mi NNE 3.5 mph - N/A   Mostly Cloudy
6:00 PM 78.8 °F - 73.4 °F 83% 29.83 in 4.3 mi Variable 4.6 mph - N/A   Mostly Cloudy
6:30 PM 78.8 °F - 73.4 °F 83% 29.83 in 4.3 mi ENE 4.6 mph - N/A   Mostly Cloudy
7:00 PM 78.8 °F - 73.4 °F 83% 29.83 in 4.3 mi NE 4.6 mph - N/A   Mostly Cloudy
7:30 PM 78.8 °F - 73.4 °F 83% 29.83 in 4.3 mi NE 5.8 mph - N/A   Mostly Cloudy
8:00 PM 80.6 °F 85.4 °F 73.4 °F 79% 29.86 in 4.3 mi NE 5.8 mph - N/A   Mostly Cloudy
8:30 PM 80.6 °F 85.4 °F 73.4 °F 79% 29.86 in 5.0 mi ENE 5.8 mph - N/A   Mostly Cloudy
9:00 PM 78.8 °F - 73.4 °F 83% 29.86 in 5.0 mi NE 4.6 mph - N/A   Mostly Cloudy
9:30 PM 80.6 °F 85.4 °F 73.4 °F 79% 29.89 in 5.0 mi NE 4.6 mph - N/A   Mostly Cloudy
10:00 PM 78.8 °F - 73.4 °F 83% 29.86 in 5.0 mi NE 4.6 mph - N/A   Mostly Cloudy
10:30 PM 78.8 °F - 73.4 °F 83% 29.86 in 5.0 mi NE 4.6 mph - N/A   Mostly Cloudy
11:00 PM 78.8 °F - 73.4 °F 83% 29.86 in 5.0 mi ENE 4.6 mph - N/A   Mostly Cloudy
11:30 PM 78.8 °F - 73.4 °F 83% 29.86 in 5.0 mi NE 3.5 mph - N/A   Mostly Cloudy